ATLAS 5 CENTAUR DEB, 44682

Orbit data source: Space-Track

ATLAS 5 CENTAUR DEB, 44682 is space debris in HEO originally from a launch on Wed, 17 Oct 2018 UTC launched from the Air Force Eastern Test Range (AFETR). Debris objects in space refer to the collection of defunct objects orbiting the Earth. Examples of debris include non-operational satellites, rocket bodies, and fragments generated from explosions, collisions, or faulty payload assembly.

Loading next visibility...
Identifier
44682, 2018-079AU
Orbit
HEO
Country
Flag of USUS
Related business
Flag of USUnited Launch Alliance/Lockheed Martin (US)
Manufacturer
ULA Decatur
Mission
Spacecraft
Bus & Motor
Unknown
Mass
Unknown
Launch date (UTC)
2018-10-17 (7 years ago)
Launch vehicle
Unknown
Launch site
Air Force Eastern Test Range (AFETR)
Object type
Payload
Rocket body
Debris
Shape & HBR
Unknown
Radar Cross Section
RCS unknown

Expand to show TLE details & history
Last TLE update: 1 week ago

TLE from 1 week ago
0 ATLAS 5 CENTAUR DEB
1 44682U 18079AU  25252.08003185 -.00000115  00000-0  00000-0 0  9998
2 44682  13.0850  59.8975 4631000 264.9050  42.6750  1.81923900 41749
Epoch: 2025-09-09T01:55Z
TLE epoch observation values (Epoch: 2025-09-09T01:55:14.751Z)
Latitude
-0.00007°
Longitude
42.79634°
Altitude
16,815.579 km
Speed
4.507 km/s
True Right ascension
03h 59m 56s
True Declination
0° 00' 00"
Sunlit
Object was in daylight at epoch
Visualization orbit readout
Latitude
Unknown
Longitude
Unknown
Altitude
Unknown
Speed
Unknown
Apparent Right ascension
Unknown
Apparent Declination
Unknown
Sunlit
N/A
Visualization observer readout
Local Sidereal Time
11:32:49
Azimuth
Unknown
Elevation
Unknown
Doppler factor
Unknown
Orbital elements
Apogee altitude
35,096.365 km
Perigee altitude
8,841.37 km
Semi-major axis
28,347.004 km
Eccentricity
0.4631
Inclination
13.085°
RAAN
59.8975°
Arg. of periapsis
264.905°
True anomaly
95.20023°
Mean anomaly
42.675°
Eccentric anomaly
67.12126°
Mean motion
0.45476 °/min
Orbital period
791.63 mins
BSTAR
0
Loading maneuver chart data...
Computing Atmospheric mass density...

Documentation

Showing up to 5 results
|